Date,TemperatureHighF,TemperatureAvgF,TemperatureLowF,DewpointHighF,DewpointAvgF,DewpointLowF,HumidityHigh,HumidityAvg,HumidityLow,PressureMaxIn,PressureMinIn,WindSpeedMaxMPH,WindSpeedAvgMPH,GustSpeedMaxMPH,PrecipitationSumIn
2013-1-1,73.0,61.9,53.0,-99.9,-99.9,-99.9,0,0,100,30.30,30.06,17,0,20,0.00
2013-1-2,73.0,63.0,58.0,-99.9,-99.9,-99.9,0,0,100,30.14,30.03,15,7,20,0.00
2013-1-3,60.0,55.9,49.0,-99.9,-99.9,-99.9,0,0,100,30.30,30.12,14,8,18,0.00
2013-1-4,55.0,51.2,49.0,-99.9,-99.9,-99.9,0,0,100,30.38,30.28,13,8,17,0.00
2013-1-5,57.0,52.2,45.0,-99.9,-99.9,-99.9,0,0,100,30.41,30.32,13,8,16,0.00
2013-1-6,61.0,55.8,52.0,-99.9,-99.9,-99.9,0,0,100,30.32,30.18,12,6,16,0.00
2013-1-7,59.0,54.7,48.0,-99.9,-99.9,-99.9,0,0,100,30.35,30.24,23,14,29,0.00
2013-1-8,63.0,59.1,56.0,-99.9,-99.9,-99.9,0,0,100,30.35,30.25,19,10,24,0.00
2013-1-9,65.0,60.4,58.0,-99.9,-99.9,-99.9,0,0,100,30.41,30.29,14,0,17,0.00
2013-1-10,68.0,63.0,58.0,-99.9,-99.9,-99.9,0,0,100,30.42,30.34,11,-9,14,0.00
2013-1-11,78.0,68.9,64.0,-99.9,-99.9,-99.9,0,0,100,30.35,30.23,14,6,18,0.00
2013-1-12,75.0,66.7,59.0,-99.9,-99.9,-99.9,0,0,100,30.27,30.17,10,-54,14,0.00
2013-1-13,76.0,67.8,62.0,-99.9,-99.9,-99.9,0,0,100,30.24,30.14,11,5,14,0.00
2013-1-14,77.0,70.8,64.0,-99.9,-99.9,-99.9,0,0,100,30.26,30.18,12,8,17,0.00
2013-1-15,76.0,68.9,63.0,-99.9,-99.9,-99.9,0,0,100,30.23,30.12,11,6,17,0.00
2013-1-16,79.0,70.2,65.0,-99.9,-99.9,-99.9,0,0,100,30.15,30.05,15,7,21,0.00
2013-1-17,75.0,61.5,44.0,-99.9,-99.9,-99.9,0,0,100,30.19,29.94,28,13,37,0.00
2013-1-18,56.0,51.2,43.0,-99.9,-99.9,-99.9,0,0,100,30.46,30.19,30,21,37,0.00
2013-1-19,57.0,55.5,53.0,-99.9,-99.9,-99.9,0,0,100,30.43,30.26,25,16,30,0.00
2013-1-20,66.0,58.8,54.0,-99.9,-99.9,-99.9,0,0,100,30.28,30.14,11,-16,14,0.00
2013-1-21,66.0,57.8,52.0,-99.9,-99.9,-99.9,0,0,100,30.19,30.09,9,-3,13,0.00
2013-1-22,61.0,53.3,47.0,-99.9,-99.9,-99.9,0,0,100,30.36,30.15,13,8,20,0.00
2013-1-23,61.0,49.7,41.0,-99.9,-99.9,-99.9,0,0,100,30.48,30.33,13,5,16,0.00
2013-1-24,70.0,59.5,49.0,-99.9,-99.9,-99.9,0,0,100,30.35,30.24,21,10,27,0.00
2013-1-25,68.0,58.1,56.0,-99.9,-99.9,-99.9,0,0,100,30.39,30.23,19,-39,23,0.00
2013-1-26,73.0,63.5,55.0,-99.9,-99.9,-99.9,0,0,100,30.29,30.21,14,1,18,0.00
2013-1-27,62.0,60.1,58.0,-99.9,-99.9,-99.9,0,0,100,30.44,30.29,20,14,25,0.00
2013-1-28,67.0,61.6,58.0,-99.9,-99.9,-99.9,0,0,100,30.45,30.33,13,-64,14,0.00
2013-1-29,72.0,66.6,61.0,-99.9,-99.9,-99.9,0,0,100,30.34,30.17,12,-17,18,0.00
2013-1-30,81.0,71.4,66.0,-99.9,-99.9,-99.9,0,0,100,30.18,29.84,27,9,38,0.00
2013-1-31,58.0,52.9,48.0,-99.9,-99.9,-99.9,0,0,100,30.31,29.92,27,12,38,0.00
2013-2-1,61.0,52.4,44.0,-99.9,-99.9,-99.9,0,0,100,30.38,30.29,18,9,22,0.00
2013-2-2,59.0,49.6,38.0,-99.9,-99.9,-99.9,0,0,100,30.40,30.21,12,6,15,0.00
2013-2-3,64.0,54.9,47.0,-99.9,-99.9,-99.9,0,0,100,30.24,30.09,17,9,22,0.00
2013-2-4,58.0,53.5,47.0,-99.9,-99.9,-99.9,0,0,100,30.19,30.11,11,5,13,0.00
2013-2-5,67.0,57.9,50.0,-99.9,-99.9,-99.9,0,0,100,30.16,30.06,7,-17,9,0.00
2013-2-6,63.0,60.6,59.0,-99.9,-99.9,-99.9,0,0,100,30.21,30.10,11,-37,12,0.00
2013-2-7,72.0,66.0,61.0,-99.9,-99.9,-99.9,0,0,100,30.18,29.87,22,0,27,0.00
2013-2-8,68.0,60.2,56.0,-99.9,-99.9,-99.9,0,0,100,30.15,29.88,19,11,23,0.00
2013-2-9,60.0,56.4,50.0,-99.9,-99.9,-99.9,0,0,100,30.32,30.14,20,13,23,0.00
2013-2-10,70.0,64.7,59.0,-99.9,-99.9,-99.9,0,0,100,30.38,30.23,18,10,22,0.00
2013-2-11,78.0,68.3,64.0,-99.9,-99.9,-99.9,0,0,100,30.25,30.12,15,-6,23,0.00
2013-2-12,78.0,67.0,62.0,-99.9,-99.9,-99.9,0,0,100,30.14,29.91,16,7,20,0.00
2013-2-13,75.0,70.6,62.0,-99.9,-99.9,-99.9,0,0,100,29.98,29.84,19,11,23,0.00
2013-2-14,63.0,52.8,49.0,-99.9,-99.9,-99.9,0,0,100,30.14,29.97,13,7,22,0.00
2013-2-15,57.0,51.5,43.0,-99.9,-99.9,-99.9,0,0,100,30.16,30.04,13,0,16,0.00
2013-2-16,57.0,50.2,43.0,-99.9,-99.9,-99.9,0,0,100,30.19,29.97,25,10,32,0.00
2013-2-17,51.0,42.0,33.0,-99.9,-99.9,-99.9,0,0,100,30.41,30.18,17,10,23,0.00
2013-2-18,57.0,49.7,40.0,-99.9,-99.9,-99.9,0,0,100,30.48,30.29,11,6,15,0.00
2013-2-19,74.0,62.4,51.0,-99.9,-99.9,-99.9,0,0,100,30.29,30.06,22,10,31,0.00
2013-2-20,60.0,53.5,47.0,-99.9,-99.9,-99.9,0,0,100,30.24,30.13,12,-8,16,0.00
2013-2-21,64.0,57.0,50.0,-99.9,-99.9,-99.9,0,0,100,30.22,30.11,11,-2,12,0.00
2013-2-22,76.0,68.8,64.0,-99.9,-99.9,-99.9,0,0,100,30.14,30.05,13,6,19,0.00
2013-2-23,80.0,71.0,60.0,-99.9,-99.9,-99.9,0,0,100,30.06,29.90,28,3,38,0.00
2013-2-24,65.0,62.8,61.0,-99.9,-99.9,-99.9,0,0,100,30.06,29.90,12,-8,16,0.00
2013-2-25,67.0,63.2,60.0,-99.9,-99.9,-99.9,0,0,100,30.03,29.85,23,14,39,0.00
2013-2-26,76.0,69.1,63.0,-99.9,-99.9,-99.9,0,0,100,29.87,29.72,26,13,31,0.00
2013-2-27,67.0,59.5,54.0,-99.9,-99.9,-99.9,0,0,100,30.03,29.87,24,11,29,0.00
2013-2-28,67.0,58.8,52.0,-99.9,-99.9,-99.9,0,0,100,30.03,29.90,21,11,29,0.00
2013-3-1,56.0,51.7,47.0,-99.9,-99.9,-99.9,0,0,100,30.06,29.96,16,10,21,0.00
2013-3-2,51.0,46.1,42.0,-99.9,-99.9,-99.9,0,0,100,30.08,29.97,25,13,33,0.00
2013-3-3,45.0,41.1,38.0,-99.9,-99.9,-99.9,0,0,100,30.19,30.04,21,13,28,0.00
2013-3-4,56.0,46.8,37.0,-99.9,-99.9,-99.9,0,0,100,30.28,30.17,15,8,18,0.00
2013-3-5,72.0,60.2,47.0,-99.9,-99.9,-99.9,0,0,100,30.24,29.93,27,12,33,0.00
2013-3-6,64.0,51.8,45.0,-99.9,-99.9,-99.9,0,0,100,30.19,29.90,29,18,37,0.00
2013-3-7,56.0,47.3,39.0,-99.9,-99.9,-99.9,0,0,100,30.29,30.19,14,7,18,0.00
2013-3-8,57.0,53.0,48.0,-99.9,-99.9,-99.9,0,0,100,30.30,30.22,17,8,21,0.00
2013-3-9,60.0,57.2,51.0,-99.9,-99.9,-99.9,0,0,100,30.35,30.23,21,12,24,0.00
2013-3-10,69.0,63.0,58.0,-99.9,-99.9,-99.9,0,0,100,30.28,30.20,13,8,18,0.00
2013-3-11,72.0,66.1,60.0,-99.9,-99.9,-99.9,0,0,100,30.21,29.97,15,8,24,0.00
2013-3-12,68.0,65.1,58.0,-99.9,-99.9,-99.9,0,0,100,30.07,29.90,15,9,23,0.00
2013-3-13,67.0,57.8,49.0,-99.9,-99.9,-99.9,0,0,100,30.24,30.06,17,10,22,0.00
2013-3-14,58.0,49.0,43.0,-99.9,-99.9,-99.9,0,0,100,30.36,30.22,17,-19,23,0.00
2013-3-15,64.0,53.9,44.0,-99.9,-99.9,-99.9,0,0,100,30.34,30.18,11,6,17,0.00
2013-3-16,77.0,64.1,54.0,-99.9,-99.9,-99.9,0,0,100,30.22,30.04,17,12,23,0.00
2013-3-17,73.0,63.7,54.0,-99.9,-99.9,-99.9,0,0,100,30.18,30.05,13,8,19,0.00
2013-3-18,77.0,67.4,62.0,-99.9,-99.9,-99.9,0,0,100,30.12,29.93,15,-50,19,0.00
2013-3-19,77.0,67.6,62.0,-99.9,-99.9,-99.9,0,0,100,30.07,29.93,22,-6,39,0.00
2013-3-20,66.0,60.1,55.0,-99.9,-99.9,-99.9,0,0,100,30.08,29.90,25,12,32,0.00
2013-3-21,65.0,55.2,46.0,-99.9,-99.9,-99.9,0,0,100,30.01,29.91,16,8,22,0.00
2013-3-22,60.0,55.8,52.0,-99.9,-99.9,-99.9,0,0,100,30.13,29.99,19,10,23,0.00
2013-3-23,70.0,62.4,56.0,-99.9,-99.9,-99.9,0,0,100,30.07,29.85,22,1,26,0.00
2013-3-24,82.0,71.5,62.0,-99.9,-99.9,-99.9,0,0,100,29.86,29.58,23,14,32,0.00
2013-3-25,70.0,58.8,49.0,-99.9,-99.9,-99.9,0,0,100,30.08,29.65,27,17,35,0.00
2013-3-26,53.0,47.2,41.0,-99.9,-99.9,-99.9,0,0,100,30.31,30.08,25,13,32,0.00
2013-3-27,54.0,45.6,37.0,-99.9,-99.9,-99.9,0,0,100,30.36,30.27,15,7,20,0.00
2013-3-28,60.0,51.7,43.0,-99.9,-99.9,-99.9,0,0,100,30.36,30.28,17,-21,20,0.00
2013-3-29,63.0,56.3,48.0,-99.9,-99.9,-99.9,0,0,100,30.39,30.28,14,6,15,0.00
2013-3-30,73.0,61.6,51.0,-99.9,-99.9,-99.9,0,0,100,30.32,30.17,16,7,21,0.00
2013-3-31,78.0,67.0,56.0,-99.9,-99.9,-99.9,0,0,100,30.20,30.02,20,10,26,0.00
2013-4-1,79.0,69.8,62.0,-99.9,-99.9,-99.9,0,0,100,30.06,29.94,18,10,23,0.00
2013-4-2,69.0,64.5,60.0,-99.9,-99.9,-99.9,0,0,100,30.19,30.03,17,8,23,0.00
2013-4-3,71.0,64.0,59.0,-99.9,-99.9,-99.9,0,0,100,30.16,30.09,26,9,31,0.00
2013-4-4,76.0,69.5,65.0,-99.9,-99.9,-99.9,0,0,100,30.13,29.91,21,10,28,0.00
2013-4-5,69.0,58.1,54.0,-99.9,-99.9,-99.9,0,0,100,30.09,29.87,19,3,24,0.00
2013-4-6,62.0,58.6,52.0,-99.9,-99.9,-99.9,0,0,100,30.24,30.08,20,13,23,0.00
2013-4-7,72.0,66.7,62.0,-99.9,-99.9,-99.9,0,0,100,30.27,30.15,14,0,18,0.00
2013-4-8,72.0,67.0,62.0,-99.9,-99.9,-99.9,0,0,100,30.24,30.15,13,-72,17,0.00
2013-4-9,76.0,69.4,64.0,-99.9,-99.9,-99.9,0,0,100,30.27,30.15,15,6,21,0.00
2013-4-10,75.0,69.9,65.0,-99.9,-99.9,-99.9,0,0,100,30.22,30.07,13,7,17,0.00
2013-4-11,77.0,72.7,70.0,-99.9,-99.9,-99.9,0,0,100,30.07,29.88,17,10,28,0.00
2013-4-12,84.0,76.5,71.0,-99.9,-99.9,-99.9,0,0,100,29.94,29.81,27,12,34,0.00
2013-4-13,74.0,67.5,64.0,-99.9,-99.9,-99.9,0,0,100,30.08,29.93,14,8,18,0.00
2013-4-14,72.0,66.0,64.0,-99.9,-99.9,-99.9,0,0,100,30.08,29.94,19,-20,25,0.00
2013-4-15,75.0,66.7,64.0,-99.9,-99.9,-99.9,0,0,100,30.19,29.88,18,8,23,0.00
2013-4-16,71.0,67.5,64.0,-99.9,-99.9,-99.9,0,0,100,30.26,30.16,17,9,19,0.00
2013-4-17,70.0,68.8,67.0,-99.9,-99.9,-99.9,0,0,100,30.25,30.16,15,9,18,0.00
2013-4-18,78.0,71.9,67.0,-99.9,-99.9,-99.9,0,0,100,30.16,30.05,12,-1,16,0.00
2013-4-19,85.0,75.5,71.0,-99.9,-99.9,-99.9,0,0,100,30.08,29.93,16,9,24,0.00
2013-4-20,70.0,57.5,51.0,-99.9,-99.9,-99.9,0,0,100,30.26,30.04,21,11,25,0.00
2013-4-21,67.0,64.5,61.0,-99.9,-99.9,-99.9,0,0,100,30.26,30.17,32,22,38,0.00
2013-4-22,66.0,63.3,60.0,-99.9,-99.9,-99.9,0,0,100,30.22,30.11,34,25,40,0.00
2013-4-23,65.0,63.1,61.0,-99.9,-99.9,-99.9,0,0,100,30.24,30.13,23,14,28,0.00
2013-4-24,74.0,67.1,61.0,-99.9,-99.9,-99.9,0,0,100,30.23,30.16,12,7,15,0.00
2013-4-25,80.0,71.4,64.0,-99.9,-99.9,-99.9,0,0,100,30.27,30.16,11,5,15,0.00
2013-4-26,71.0,68.5,64.0,-99.9,-99.9,-99.9,0,0,100,30.36,30.23,23,12,27,0.00
2013-4-27,72.0,69.2,67.0,-99.9,-99.9,-99.9,0,0,100,30.34,30.24,19,12,23,0.00
2013-4-28,76.0,71.9,69.0,-99.9,-99.9,-99.9,0,0,100,30.24,30.07,17,8,23,0.00
2013-4-29,80.0,71.3,67.0,-99.9,-99.9,-99.9,0,0,100,30.09,29.99,15,-1,21,0.00
2013-4-30,73.0,68.6,66.0,-99.9,-99.9,-99.9,0,0,100,30.11,30.01,18,-28,19,0.00
2013-5-1,70.0,68.5,66.0,-99.9,-99.9,-99.9,0,0,100,30.13,30.05,28,19,33,0.00
2013-5-2,71.0,69.3,67.0,-99.9,-99.9,-99.9,0,0,100,30.10,29.98,29,18,36,0.00
2013-5-3,71.0,69.1,67.0,-99.9,-99.9,-99.9,0,0,100,29.99,29.90,30,22,38,0.00
2013-5-4,71.0,68.4,66.0,-99.9,-99.9,-99.9,0,0,100,29.91,29.78,27,21,36,0.00
2013-5-5,75.0,68.0,60.0,-99.9,-99.9,-99.9,0,0,100,29.95,29.77,20,12,24,0.00
2013-5-6,71.0,64.6,58.0,-99.9,-99.9,-99.9,0,0,100,30.04,29.91,17,10,21,0.00
2013-5-7,75.0,67.2,60.0,-99.9,-99.9,-99.9,0,0,100,30.08,29.96,22,12,28,0.00
2013-5-8,76.0,68.5,62.0,-99.9,-99.9,-99.9,0,0,100,30.16,30.06,12,-1,17,0.00
2013-5-9,78.0,71.9,66.0,-99.9,-99.9,-99.9,0,0,100,30.20,30.13,12,7,16,0.00
2013-5-10,80.0,71.9,65.0,-99.9,-99.9,-99.9,0,0,100,30.19,30.06,13,-1,19,0.00
2013-5-11,86.0,75.0,69.0,-99.9,-99.9,-99.9,0,0,100,30.11,29.98,22,8,33,0.00
2013-5-12,82.0,73.4,68.0,-99.9,-99.9,-99.9,0,0,100,30.09,29.99,17,10,24,0.00
2013-5-13,75.0,68.9,64.0,-99.9,-99.9,-99.9,0,0,100,30.21,30.06,17,-24,21,0.00
2013-5-14,72.0,66.3,58.0,-99.9,-99.9,-99.9,0,0,100,30.31,30.21,12,7,15,0.00
2013-5-15,78.0,70.5,63.0,-99.9,-99.9,-99.9,0,0,100,30.29,30.15,14,6,19,0.00
2013-5-16,81.0,66.6,65.0,-99.9,-99.9,-99.9,0,0,100,30.19,30.10,17,8,19,0.00
2013-5-17,78.0,72.4,66.0,-99.9,-99.9,-99.9,0,0,100,30.18,30.11,13,6,18,0.00
2013-5-18,79.0,74.5,69.0,-99.9,-99.9,-99.9,0,0,100,30.20,30.10,16,7,22,0.00
2013-5-19,80.0,74.6,70.0,-99.9,-99.9,-99.9,0,0,100,30.16,30.08,15,7,21,0.00
2013-5-20,79.0,75.0,71.0,-99.9,-99.9,-99.9,0,0,100,30.16,30.08,12,6,18,0.00
2013-5-21,79.0,74.5,71.0,-99.9,-99.9,-99.9,0,0,100,30.13,30.03,17,-15,21,0.00
2013-5-22,78.0,74.6,71.0,-99.9,-99.9,-99.9,0,0,100,30.07,29.99,13,-2,16,0.00
2013-5-23,83.0,76.0,70.0,-99.9,-99.9,-99.9,0,0,100,30.05,29.97,12,6,14,0.00
2013-5-24,85.0,78.4,73.0,-99.9,-99.9,-99.9,0,0,100,30.17,30.00,18,9,23,0.00
2013-5-25,76.0,73.5,71.0,-99.9,-99.9,-99.9,0,0,100,30.33,30.17,21,-17,25,0.00
2013-5-26,78.0,72.8,67.0,-99.9,-99.9,-99.9,0,0,100,30.31,30.22,13,5,17,0.00
2013-5-27,78.0,73.0,66.0,-99.9,-99.9,-99.9,0,0,100,30.29,30.21,13,7,18,0.00
2013-5-28,79.0,76.4,74.0,-99.9,-99.9,-99.9,0,0,100,30.27,30.19,14,10,19,0.00
2013-5-29,80.0,77.3,75.0,-99.9,-99.9,-99.9,0,0,100,30.25,30.17,15,10,20,0.00
2013-5-30,81.0,78.3,76.0,-99.9,-99.9,-99.9,0,0,100,30.26,30.17,16,9,20,0.00
2013-5-31,82.0,78.5,73.0,-99.9,-99.9,-99.9,0,0,100,30.24,30.17,16,9,30,0.00
2013-6-1,82.0,78.6,76.0,-99.9,-99.9,-99.9,0,0,100,30.19,30.10,15,10,21,0.00
2013-6-2,82.0,78.8,76.0,-99.9,-99.9,-99.9,0,0,100,30.13,29.96,16,9,20,0.00
2013-6-3,87.0,78.0,73.0,-99.9,-99.9,-99.9,0,0,100,30.03,29.93,18,7,27,0.00
2013-6-4,84.0,76.5,71.0,-99.9,-99.9,-99.9,0,0,100,30.08,30.00,16,-8,19,0.00
2013-6-5,82.0,76.5,74.0,-99.9,-99.9,-99.9,0,0,100,30.08,30.00,11,-8,18,0.00
2013-6-6,78.0,75.7,71.0,-99.9,-99.9,-99.9,0,0,100,30.01,29.62,20,-18,33,0.00
2013-6-7,87.0,78.3,72.0,-99.9,-99.9,-99.9,0,0,100,29.98,29.62,25,15,33,0.00
2013-6-8,85.0,79.2,75.0,-99.9,-99.9,-99.9,0,0,100,30.14,29.97,13,8,19,0.00
2013-6-9,82.0,77.9,74.0,-99.9,-99.9,-99.9,0,0,100,30.20,30.11,16,6,20,0.00
2013-6-10,85.0,79.9,76.0,-99.9,-99.9,-99.9,0,0,100,30.17,30.07,14,7,20,0.00
2013-6-11,89.0,80.6,75.0,-99.9,-99.9,-99.9,0,0,100,30.15,30.06,13,7,18,0.00
2013-6-12,92.0,82.6,75.0,-99.9,-99.9,-99.9,0,0,100,30.12,30.03,11,8,17,0.00
2013-6-13,92.0,83.8,73.0,-99.9,-99.9,-99.9,0,0,100,30.06,29.91,36,9,45,0.00
2013-6-14,88.0,80.1,74.0,-99.9,-99.9,-99.9,0,0,100,30.00,29.85,23,3,38,0.00
2013-6-15,83.0,80.4,78.0,-99.9,-99.9,-99.9,0,0,100,30.16,30.00,16,11,21,0.00
2013-6-16,82.0,79.1,77.0,-99.9,-99.9,-99.9,0,0,100,30.20,30.14,13,8,17,0.00
2013-6-17,84.0,80.8,77.0,-99.9,-99.9,-99.9,0,0,100,30.16,30.03,13,6,20,0.00
2013-6-18,91.0,81.7,76.0,-99.9,-99.9,-99.9,0,0,100,30.09,29.97,18,10,24,0.00
2013-6-19,88.0,80.7,72.0,-99.9,-99.9,-99.9,0,0,100,30.10,30.00,18,9,27,0.00
2013-6-20,82.0,77.5,74.0,-99.9,-99.9,-99.9,0,0,100,30.16,30.05,18,7,21,0.00
2013-6-22,82.0,77.9,73.0,-99.9,-99.9,-99.9,0,0,100,30.20,30.14,14,-70,19,0.00
2013-6-23,83.0,80.1,76.0,-99.9,-99.9,-99.9,0,0,100,30.24,30.15,12,6,17,0.00
2013-6-24,84.0,80.5,77.0,-99.9,-99.9,-99.9,0,0,100,30.27,30.18,14,6,19,0.00
2013-6-25,84.0,81.0,77.0,-99.9,-99.9,-99.9,0,0,100,30.24,30.13,13,6,18,0.00
2013-6-26,84.0,79.8,76.0,-99.9,-99.9,-99.9,0,0,100,30.16,30.06,13,6,19,0.00
2013-6-27,87.0,79.6,74.0,-99.9,-99.9,-99.9,0,0,100,30.09,29.95,17,8,27,0.00
2013-6-28,88.0,80.9,79.0,-99.9,-99.9,-99.9,0,0,100,29.99,29.84,18,12,27,0.00
2013-6-29,85.0,80.3,78.0,-99.9,-99.9,-99.9,0,0,100,29.88,29.81,20,10,23,0.00
2013-6-30,88.0,77.9,74.0,-99.9,-99.9,-99.9,0,0,100,29.92,29.84,17,8,26,0.00
2013-7-1,84.0,75.1,72.0,-99.9,-99.9,-99.9,0,0,100,30.09,29.89,13,7,26,0.00
2013-7-2,83.0,75.6,73.0,-99.9,-99.9,-99.9,0,0,100,30.17,30.06,14,6,18,0.00
2013-7-3,82.0,77.9,74.0,-99.9,-99.9,-99.9,0,0,100,30.22,30.14,11,7,20,0.00
2013-7-4,82.0,79.2,76.0,-99.9,-99.9,-99.9,0,0,100,30.24,30.18,17,8,24,0.00
2013-7-5,83.0,78.8,75.0,-99.9,-99.9,-99.9,0,0,100,30.25,30.18,15,6,23,0.00
2013-7-6,83.0,79.8,77.0,-99.9,-99.9,-99.9,0,0,100,30.23,30.15,13,7,21,0.00
2013-7-7,83.0,79.6,76.0,-99.9,-99.9,-99.9,0,0,100,30.24,30.16,14,-3,20,0.00
2013-7-8,83.0,79.1,77.0,-99.9,-99.9,-99.9,0,0,100,30.26,30.18,11,-9,16,0.00
2013-7-9,84.0,80.5,78.0,-99.9,-99.9,-99.9,0,0,100,30.26,30.16,12,-35,16,0.00
2013-7-10,83.0,77.9,76.0,-99.9,-99.9,-99.9,0,0,100,30.18,30.04,13,6,19,0.00
2013-7-11,85.0,79.8,75.0,-99.9,-99.9,-99.9,0,0,100,30.10,29.95,15,7,21,0.00
2013-7-12,82.0,77.4,75.0,-99.9,-99.9,-99.9,0,0,100,30.00,29.95,9,5,13,0.00
2013-7-13,82.0,77.4,73.0,-99.9,-99.9,-99.9,0,0,100,30.08,29.97,13,6,20,0.00
2013-7-14,81.0,77.4,74.0,-99.9,-99.9,-99.9,0,0,100,30.20,30.05,12,-18,20,0.00
2013-7-15,83.0,79.0,77.0,-99.9,-99.9,-99.9,0,0,100,30.24,30.17,16,8,22,0.00
2013-7-16,82.0,80.4,79.0,-99.9,-99.9,-99.9,0,0,100,30.28,30.22,15,10,17,0.00
2013-7-17,83.0,80.6,80.0,-99.9,-99.9,-99.9,0,0,100,30.29,30.17,13,9,15,0.00
2013-7-18,83.0,80.2,77.0,-99.9,-99.9,-99.9,0,0,100,30.22,30.13,12,-38,17,0.00
2013-7-19,84.0,78.6,75.0,-99.9,-99.9,-99.9,0,0,100,30.19,30.11,11,5,18,0.00
2013-7-20,86.0,76.5,73.0,-99.9,-99.9,-99.9,0,0,100,30.16,30.09,19,5,28,0.00
2013-7-21,88.0,78.4,73.0,-99.9,-99.9,-99.9,0,0,100,30.17,30.07,24,7,30,0.00
2013-7-22,87.0,78.6,73.0,-99.9,-99.9,-99.9,0,0,100,30.16,30.08,19,9,23,0.00
2013-7-23,88.0,79.2,76.0,-99.9,-99.9,-99.9,0,0,100,30.10,29.98,19,13,23,0.00
2013-7-24,85.0,78.6,73.0,-99.9,-99.9,-99.9,0,0,100,29.98,29.87,19,13,23,0.00
2013-7-25,86.0,78.1,74.0,-99.9,-99.9,-99.9,0,0,100,30.02,29.88,14,8,19,0.00
2013-7-26,81.0,79.2,76.0,-99.9,-99.9,-99.9,0,0,100,30.10,30.00,13,6,16,0.00
2013-7-27,85.0,80.2,76.0,-99.9,-99.9,-99.9,0,0,100,30.07,29.96,16,5,22,0.00
2013-7-28,85.0,78.3,74.0,-99.9,-99.9,-99.9,0,0,100,30.11,29.98,16,-2,22,0.00
2013-7-29,85.0,77.7,74.0,-99.9,-99.9,-99.9,0,0,100,30.22,30.09,13,6,18,0.00
2013-7-30,87.0,81.3,78.0,-99.9,-99.9,-99.9,0,0,100,30.24,30.16,10,5,14,0.00
2013-7-31,85.0,78.2,74.0,-99.9,-99.9,-99.9,0,0,100,30.20,30.11,15,5,19,0.00
2013-8-1,85.0,76.2,71.0,-99.9,-99.9,-99.9,0,0,100,30.12,30.02,15,6,39,0.00
2013-8-2,85.0,79.5,74.0,-99.9,-99.9,-99.9,0,0,100,30.11,30.01,13,6,18,0.00
2013-8-3,88.0,81.3,77.0,-99.9,-99.9,-99.9,0,0,100,30.12,30.04,15,-4,19,0.00
2013-8-4,91.0,83.5,79.0,-99.9,-99.9,-99.9,0,0,100,30.11,30.00,14,8,19,0.00
2013-8-5,86.0,82.1,79.0,-99.9,-99.9,-99.9,0,0,100,30.06,29.98,14,7,16,0.00
2013-8-6,84.0,81.9,80.0,-99.9,-99.9,-99.9,0,0,100,30.07,29.97,13,8,18,0.00
2013-8-7,83.0,81.7,81.0,-99.9,-99.9,-99.9,0,0,100,30.09,30.02,14,9,18,0.00
2013-8-8,85.0,81.2,80.0,-99.9,-99.9,-99.9,0,0,100,30.13,30.03,15,6,19,0.00
2013-8-9,85.0,82.1,80.0,-99.9,-99.9,-99.9,0,0,100,30.16,30.05,13,7,17,0.00
2013-8-10,86.0,83.1,79.0,-99.9,-99.9,-99.9,0,0,100,30.22,30.14,13,6,19,0.00
2013-8-11,87.0,82.4,78.0,-99.9,-99.9,-99.9,0,0,100,30.24,30.14,12,6,19,0.00
2013-8-31,85.0,80.0,77.0,-99.9,-99.9,-99.9,0,0,100,30.03,29.94,11,6,19,0.00
2013-9-1,85.0,66.2,76.0,-99.9,-99.9,-99.9,0,0,100,30.03,29.96,13,6,17,0.00
2013-9-2,86.0,80.3,76.0,-99.9,-99.9,-99.9,0,0,100,30.06,30.00,16,9,21,0.00
2013-9-3,87.0,81.2,76.0,-99.9,-99.9,-99.9,0,0,100,30.05,29.96,6,5,10,0.00
2013-9-4,87.0,82.2,79.0,-99.9,-99.9,-99.9,0,0,100,30.15,30.04,8,5,12,0.00
2013-9-5,88.0,81.5,78.0,-99.9,-99.9,-99.9,0,0,100,30.16,30.09,9,6,10,0.00
2013-9-6,83.0,79.9,78.0,-99.9,-99.9,-99.9,0,0,100,30.13,30.08,12,6,14,0.00
2013-12-31,58.0,55.8,55.0,-99.9,-99.9,-99.9,0,0,100,0.00,40.00,8,6,10,0.00
2014-1-1,59.0,56.7,55.0,-99.9,-99.9,-99.9,0,0,100,0.00,40.00,9,6,10,0.00
2014-1-2,64.0,60.0,58.0,-99.9,-99.9,-99.9,0,0,100,0.00,40.00,14,7,18,0.00